Погода в Ноле

Центральноафриканская республика     3°31′13″N   16°03′27″E
темп.,
°C
ветер,
м/с
пор.,
м/с
влажн.,
%
обл.,
%
осадки,
мм/ч
давл.,
гПа
погр.,
м
7 марта, вс
вс701:00+20юз2563100 0.0 1011112
04:00+19зюз1394100 0.0 101097
07:00+22зюз1780100 0.0 1012348
10:00+32з233950 0.0 10121284
13:00+38с251775 0.0 10073255
16:00+37всв2315100 0.0 10053765
19:00+28юв1127100 0.0 100724
22:00+23ю1237100 0.0 100923
8 марта, пн
пн801:00+23ю1248100 0.0 100950
04:00+20зюз116182 0.0 100925
07:00+22з296175 0.0 1012423
10:00+32юз354229 0.0 10111578
13:00+37зюз232623 0.0 10073075
16:00+34ю132988 0.0 10042115
19:00+27ю275192 0.0 1007305
22:00+23ю2467100 0.0 1009120
9 марта, вт
вт901:00+21ююв137699 0.0 1009108
04:00+19ююз0195100 0.9 100923
07:00+20з1695100 1.0 1011240
10:00+32юз2444100 0.0 10111153
13:00+41в142079 0.0 10063287
16:00+35всв222778 0.0 10041924
19:00+29в114156 0.0 100630
22:00+25ююв115462 0.0 100824
10 марта, ср
ср1001:00+24ююв125676 0.0 100857
04:00+21ююв11681 0.0 100824
07:00+21зсз017316 0.3 101035
10:00+31юз35434 0.0 10111344
13:00+37ююв23277 0.0 10062676
16:00+37в332447 0.0 10033235
19:00+29в374857 0.2 1006514
22:00+24ссз016759 0.1 100724
11 марта, чт
чт1101:00+23ююз126933 0.1 100731
04:00+24з126498 0.0 100765
07:00+23з147199 0.0 1009210
10:00+32зюз244663 0.1 10101069
13:00+39ююз222674 0.1 10052689
16:00+35юв2332100 0.0 10021068
19:00+25ююз247399 0.6 1005135
22:00+22зюз118249 0.0 100823